Regional Weather Roundup
Issued by NWS

Home | Current Version | Previous Version | Text Only | Print | Product List | Glossary Off
Versions: 1 2 3 4 5 6 7 8 9 10 11 12 13 14 15 16 17 18 19 20 21 22 23 24 25 26

000
ASUS45 KCYS 260810
RWRWY

WYOMING REGIONAL WEATHER ROUNDUP
NATIONAL WEATHER SERVICE CHEYENNE WY
200 AM MDT THU MAY 26 2016

NOTE:  "FAIR" INDICATES FEW OR NO CLOUDS BELOW 12,000 FEET
WITH NO SIGNIFICANT WEATHER AND/OR OBSTRUCTIONS TO VISIBILITY.

WYZ001-260900-
YELLOWSTONE NATIONAL PARK

CITY           SKY/WX    TMP DP  RH WIND       PRES   REMARKS
LK YELLOWSTONE   N/A     31  29  92 CALM      30.12F
W YELLOWSTONE  NOT AVBL

$$
WYZ002>013-054>058-071-098>099-260900-
NORTHERN WYOMING

CITY           SKY/WX    TMP DP  RH WIND       PRES   REMARKS
JACKSON        FAIR      34  34 100 N6        30.11R WCI  29
CODY           FAIR      46  36  66 CALM      29.98S
GREYBULL       FAIR      48  46  93 CALM      29.95S
WORLAND        FAIR      45  42  89 SE6       29.95F
SHERIDAN       CLOUDY    46  43  89 SW6       29.94F
BUFFALO        FAIR      46  39  76 N12       29.96R
GILLETTE       FAIR      48  40  73 W14       29.90S
HULETT         FAIR      45  41  87 S8        29.91S
NEWCASTLE      FAIR      46  37  71 CALM      29.93S

$$
WYZ014>020-022>026-101>103-260900-
CENTRAL WYOMING

CITY           SKY/WX    TMP DP  RH WIND       PRES   REMARKS
BIG PINEY      FAIR      32  30  92 NW3       30.11S
PINEDALE       FAIR      32  32 100 W3        30.11F
DUBOIS         FAIR      41  30  65 W13G18    30.08S
LANDER         FAIR      44  33  65 S5        29.99F
RIVERTON       FAIR      44  34  67 NW10      30.00S
CASPER         FAIR      38  36  92 SW7       29.99S WCI  33
DOUGLAS          N/A    N/A N/A N/A MISG      29.98S

$$
WYZ021-027>030-104>119-260900-
SOUTHERN WYOMING

CITY           SKY/WX    TMP DP  RH WIND       PRES   REMARKS
EVANSTON       FAIR      40  34  79 N7        30.10F
KEMMERER         N/A     36  32  87 NW8       30.11F WCI  29
FORT BRIDGER   SUNNY     39  39 100 W8        30.12F WCI  34
ROCK SPRINGS   FAIR      38  34  85 W9        30.08F WCI  31
DIXON          FAIR      37  32  82 NE6       30.10S WCI  32
RAWLINS        FAIR      37  30  75 SE6       30.07S WCI  32
SARATOGA       FAIR      34  32  93 CALM      30.09S
LARAMIE        FAIR      33  29  85 W5        30.07F WCI  29
CHEYENNE       FAIR      41  33  73 W9        30.04S
TORRINGTON     FAIR      46  39  76 W5        29.94F
PINE BLUFFS    FAIR      39  36  87 SW5       30.01F

$$




USA.gov is the U.S. government's official web portal to all federal, state and local government web resources and services.